TimeEST,TemperatureF,Dew PointF,Humidity,Sea Level PressureIn,VisibilityMPH,Wind Direction,Wind SpeedMPH,Gust SpeedMPH,PrecipitationIn,Events,Conditions,WindDirDegrees,DateUTC
12:54 AM,57.9,57.0,97,30.04,10.0,SSW,4.6,-,N/A,,Clear,200,2013-01-14 05:54:00
1:54 AM,59.0,57.0,93,30.06,10.0,SSW,6.9,-,N/A,,Partly Cloudy,200,2013-01-14 06:54:00
2:54 AM,59.0,57.9,96,30.06,10.0,SSW,6.9,-,N/A,,Overcast,200,2013-01-14 07:54:00
3:54 AM,60.1,59.0,96,30.06,8.0,SSW,8.1,-,0.01,Rain,Light Rain,200,2013-01-14 08:54:00
4:54 AM,60.8,59.0,94,30.02,5.0,SE,10.4,-,N/A,Rain,Light Rain,140,2013-01-14 09:54:00
5:27 AM,60.8,59.0,94,30.04,9.0,SSW,9.2,-,N/A,Rain,Light Rain,200,2013-01-14 10:27:00
5:54 AM,59.0,59.0,100,30.05,8.0,SSW,6.9,-,0.01,,Mostly Cloudy,200,2013-01-14 10:54:00
6:54 AM,57.2,57.2,100,30.09,4.0,SSW,3.5,-,N/A,,Mostly Cloudy,210,2013-01-14 11:54:00
7:23 AM,57.2,57.2,100,30.09,1.8,South,3.5,-,0.00,,Overcast,190,2013-01-14 12:23:00
7:33 AM,57.2,57.2,100,30.10,5.0,SSW,4.6,-,0.00,,Overcast,200,2013-01-14 12:33:00
7:54 AM,57.9,57.9,100,30.09,5.0,South,4.6,-,0.00,,Overcast,190,2013-01-14 12:54:00
8:54 AM,60.1,60.1,100,30.10,5.0,SSW,5.8,-,N/A,,Overcast,200,2013-01-14 13:54:00
9:12 AM,60.8,60.8,100,30.12,8.0,South,8.1,-,N/A,,Mostly Cloudy,190,2013-01-14 14:12:00
9:54 AM,60.1,60.1,100,30.12,6.0,SSW,5.8,-,0.01,Rain,Light Rain,200,2013-01-14 14:54:00
10:03 AM,60.8,60.8,100,30.13,5.0,South,5.8,-,N/A,,Overcast,190,2013-01-14 15:03:00
10:54 AM,60.1,60.1,100,30.12,2.5,SSW,3.5,-,0.04,Rain,Light Rain,210,2013-01-14 15:54:00
11:02 AM,60.8,60.8,100,30.13,4.0,SW,3.5,-,0.01,Rain,Light Rain,220,2013-01-14 16:02:00
11:54 AM,61.0,60.1,97,30.09,3.0,SSW,3.5,-,0.01,,Overcast,210,2013-01-14 16:54:00
12:45 PM,59.0,57.2,94,30.10,2.5,North,4.6,-,0.01,Rain,Rain,360,2013-01-14 17:45:00
12:54 PM,59.0,57.0,93,30.08,2.5,Calm,Calm,-,0.02,Rain,Light Rain,0,2013-01-14 17:54:00
12:56 PM,59.0,57.2,94,30.09,3.0,Calm,Calm,-,0.00,Rain,Light Rain,0,2013-01-14 17:56:00
1:54 PM,57.0,55.9,96,30.10,10.0,Variable,4.6,-,0.01,Rain,Light Rain,0,2013-01-14 18:54:00
2:54 PM,55.9,54.0,93,30.11,8.0,North,6.9,-,0.03,Rain,Light Rain,10,2013-01-14 19:54:00
3:01 PM,55.4,53.6,94,30.12,8.0,North,4.6,-,0.01,Rain,Light Rain,10,2013-01-14 20:01:00
3:54 PM,55.9,55.9,100,30.12,10.0,NW,5.8,-,0.04,Rain,Light Rain,320,2013-01-14 20:54:00
4:54 PM,55.9,55.0,97,30.15,10.0,NNE,9.2,-,0.00,Rain,Light Rain,30,2013-01-14 21:54:00
5:54 PM,53.1,52.0,96,30.17,10.0,NE,8.1,-,0.02,Rain,Light Rain,50,2013-01-14 22:54:00
6:54 PM,51.1,50.0,96,30.17,10.0,NE,15.0,-,0.01,Rain,Light Rain,40,2013-01-14 23:54:00
7:54 PM,48.9,48.0,97,30.19,6.0,NE,15.0,-,0.04,Rain,Light Rain,40,2013-01-15 00:54:00
8:54 PM,46.9,46.0,97,30.20,8.0,NNE,15.0,-,0.08,Rain,Light Rain,30,2013-01-15 01:54:00
9:54 PM,46.0,45.0,96,30.20,7.0,NE,12.7,21.9,0.11,Rain,Light Rain,50,2013-01-15 02:54:00
10:54 PM,45.0,44.1,97,30.22,5.0,NE,16.1,-,0.09,Rain,Light Rain,40,2013-01-15 03:54:00
11:54 PM,44.1,43.0,96,30.27,3.0,NE,11.5,-,0.08,Rain,Light Rain,50,2013-01-15 04:54:00